| time (UTC) | temp F | wind direction | speed MPH | gust MPH | rain 1hr in | rain 24hr in | rain mn in | humidity % | barometer mb |
| 20260831101535 | 64 | 216 | 1.0 | 7.0 | 0.00 | 0.00 | 0.00 | 89 | 1004.9 |
| 20260831101034 | 64 | 243 | 1.0 | 8.0 | 0.00 | 0.00 | 0.00 | 89 | 1004.9 |
| 20260831100531 | 63 | 239 | 3.0 | 9.0 | 0.00 | 0.00 | 0.00 | 89 | 1005.1 |
| 20260831100032 | 63 | 245 | 3.0 | 9.0 | 0.00 | 0.00 | 0.00 | 89 | 1005.0 |
| 20260831095531 | 63 | 245 | 1.0 | 6.0 | 0.00 | 0.00 | 0.00 | 89 | 1004.9 |
| 20260831095032 | 63 | 225 | 2.0 | 7.0 | 0.00 | 0.00 | 0.00 | 89 | 1005.0 |
| 20260831094531 | 63 | 209 | 2.0 | 9.0 | 0.00 | 0.00 | 0.00 | 89 | 1005.1 |
| 20260831094134 | 63 | 241 | 0.0 | 6.0 | 0.00 | 0.00 | 0.00 | 88 | 1005.0 |
| 20260831093532 | 63 | 226 | 2.0 | 7.0 | 0.00 | 0.00 | 0.00 | 88 | 1004.9 |
| 20260831093032 | 63 | 247 | 2.0 | 7.0 | 0.00 | 0.00 | 0.00 | 88 | 1004.8 |
| 20260831092533 | 63 | 214 | 2.0 | 9.0 | 0.00 | 0.00 | 0.00 | 88 | 1004.9 |
| 20260831092033 | 63 | 197 | 3.0 | 9.0 | 0.00 | 0.00 | 0.00 | 88 | 1004.9 |
| 20260831091531 | 63 | 207 | 3.0 | 8.0 | 0.00 | 0.00 | 0.00 | 88 | 1005.0 |
| 20260831091030 | 63 | 197 | 2.0 | 11.0 | 0.00 | 0.00 | 0.00 | 88 | 1004.9 |
| 20260831090530 | 63 | 205 | 4.0 | 11.0 | 0.00 | 0.00 | 0.00 | 88 | 1004.9 |
| 20260831090033 | 63 | 195 | 2.0 | 7.0 | 0.00 | 0.00 | 0.00 | 88 | 1004.9 |
| 20260831085530 | 63 | 244 | 4.0 | 7.0 | 0.00 | 0.00 | 0.00 | 88 | 1004.9 |
| 20260831085028 | 63 | 232 | 2.0 | 8.0 | 0.00 | 0.00 | 0.00 | 88 | 1005.0 |
| 20260831084530 | 63 | 228 | 3.0 | 9.0 | 0.00 | 0.00 | 0.00 | 88 | 1005.1 |
| 20260831084127 | 63 | 226 | 3.0 | 10.0 | 0.00 | 0.00 | 0.00 | 87 | 1005.1 |
| 20260831083528 | 63 | 214 | 3.0 | 10.0 | 0.00 | 0.00 | 0.00 | 87 | 1005.2 |
| 20260831083036 | 63 | 205 | 4.0 | 9.0 | 0.00 | 0.00 | 0.00 | 87 | 1005.2 |
| 20260831082526 | 63 | 228 | 2.0 | 9.0 | 0.00 | 0.00 | 0.00 | 87 | 1005.3 |
| 20260831082028 | 63 | 228 | 4.0 | 8.0 | 0.00 | 0.00 | 0.00 | 87 | 1005.4 |
| 20260831081525 | 63 | 242 | 4.0 | 9.0 | 0.00 | 0.00 | 0.00 | 87 | 1005.4 |
| 20260831081029 | 63 | 247 | 4.0 | 9.0 | 0.00 | 0.00 | 0.00 | 87 | 1005.4 |
| 20260831080525 | 63 | 235 | 2.0 | 9.0 | 0.00 | 0.00 | 0.00 | 87 | 1005.5 |
| 20260831080024 | 63 | 218 | 2.0 | 6.0 | 0.00 | 0.00 | 0.00 | 86 | 1005.6 |
| 20260831075523 | 63 | 205 | 3.0 | 6.0 | 0.00 | 0.00 | 0.00 | 86 | 1005.6 |
| 20260831075024 | 63 | 245 | 2.0 | 9.0 | 0.00 | 0.00 | 0.00 | 86 | 1005.7 |
| 20260831074522 | 63 | 199 | 3.0 | 9.0 | 0.00 | 0.00 | 0.00 | 86 | 1005.7 |
| 20260831074124 | 63 | 211 | 3.0 | 10.0 | 0.00 | 0.00 | 0.00 | 86 | 1005.7 |
| 20260831073523 | 63 | 214 | 2.0 | 12.0 | 0.00 | 0.00 | 0.00 | 86 | 1005.7 |
| 20260831073022 | 63 | 205 | 4.0 | 12.0 | 0.00 | 0.00 | 0.00 | 86 | 1005.8 |
| 20260831072556 | 63 | 239 | 5.0 | 9.0 | 0.00 | 0.00 | 0.00 | 86 | 1005.8 |
| 20260831072020 | 63 | 229 | 3.0 | 7.0 | 0.00 | 0.00 | 0.00 | 85 | 1005.8 |
| 20260831071520 | 63 | 224 | 1.0 | 7.0 | 0.00 | 0.00 | 0.00 | 85 | 1005.9 |
| 20260831071020 | 63 | 218 | 2.0 | 10.0 | 0.00 | 0.00 | 0.00 | 85 | 1006.0 |
| 20260831070520 | 63 | 237 | 2.0 | 7.0 | 0.00 | 0.00 | 0.00 | 85 | 1006.0 |
| 20260831070025 | 63 | 241 | 2.0 | 8.0 | 0.00 | 0.00 | 0.00 | 84 | 1005.9 |
| 20260831065519 | 63 | 206 | 4.0 | 8.0 | 0.00 | 0.00 | 0.00 | 84 | 1006.0 |
| 20260831065020 | 63 | 189 | 4.0 | 8.0 | 0.00 | 0.00 | 0.00 | 84 | 1006.2 |
| 20260831064521 | 63 | 237 | 4.0 | 8.0 | 0.00 | 0.00 | 0.00 | 84 | 1006.1 |
| 20260831064120 | 63 | 225 | 2.0 | 11.0 | 0.00 | 0.00 | 0.00 | 83 | 1006.0 |
| 20260831063519 | 63 | 235 | 3.0 | 11.0 | 0.00 | 0.00 | 0.00 | 83 | 1006.1 |
| 20260831063019 | 63 | 272 | 2.0 | 8.0 | 0.00 | 0.00 | 0.00 | 83 | 1005.9 |
| 20260831062519 | 63 | 242 | 4.0 | 8.0 | 0.00 | 0.00 | 0.00 | 83 | 1006.0 |
| 20260831062018 | 63 | 202 | 3.0 | 8.0 | 0.00 | 0.00 | 0.00 | 82 | 1006.0 |
| 20260831061518 | 63 | 237 | 2.0 | 8.0 | 0.00 | 0.00 | 0.00 | 82 | 1006.1 |
| 20260831061017 | 63 | 223 | 2.0 | 8.0 | 0.00 | 0.00 | 0.00 | 82 | 1006.1 |
| 20260831060517 | 63 | 254 | 2.0 | 8.0 | 0.00 | 0.00 | 0.00 | 82 | 1006.1 |
| 20260831060016 | 63 | 253 | 3.0 | 9.0 | 0.00 | 0.00 | 0.00 | 81 | 1006.2 |
| 20260831055516 | 63 | 210 | 3.0 | 9.0 | 0.00 | 0.00 | 0.00 | 81 | 1006.2 |
| 20260831055016 | 63 | 199 | 3.0 | 9.0 | 0.00 | 0.00 | 0.00 | 81 | 1006.2 |
| 20260831054515 | 63 | 201 | 2.0 | 11.0 | 0.00 | 0.00 | 0.00 | 81 | 1006.2 |
| 20260831054115 | 63 | 197 | 3.0 | 8.0 | 0.00 | 0.00 | 0.00 | 81 | 1006.3 |
| 20260831053515 | 63 | 218 | 3.0 | 10.0 | 0.00 | 0.00 | 0.00 | 81 | 1006.3 |
| 20260831053014 | 63 | 226 | 4.0 | 10.0 | 0.00 | 0.00 | 0.00 | 80 | 1006.3 |
| 20260831052514 | 63 | 245 | 3.0 | 11.0 | 0.00 | 0.00 | 0.00 | 80 | 1006.4 |
| 20260831052013 | 63 | 216 | 3.0 | 11.0 | 0.00 | 0.00 | 0.00 | 80 | 1006.4 |
| 20260831051512 | 63 | 190 | 3.0 | 10.0 | 0.00 | 0.00 | 0.00 | 80 | 1006.4 |
| 20260831051012 | 63 | 236 | 4.0 | 10.0 | 0.00 | 0.00 | 0.00 | 80 | 1006.4 |
| 20260831050511 | 63 | 199 | 3.0 | 10.0 | 0.00 | 0.00 | 0.00 | 79 | 1006.5 |
| 20260831050010 | 63 | 260 | 5.0 | 10.0 | 0.00 | 0.00 | 0.00 | 79 | 1006.6 |
| 20260831045514 | 63 | 224 | 5.0 | 10.0 | 0.00 | 0.00 | 0.00 | 79 | 1006.8 |
| 20260831045011 | 63 | 231 | 4.0 | 11.0 | 0.00 | 0.00 | 0.00 | 79 | 1006.9 |
| 20260831044509 | 63 | 250 | 5.0 | 11.0 | 0.00 | 0.00 | 0.00 | 79 | 1006.9 |
| 20260831044108 | 63 | 214 | 6.0 | 11.0 | 0.00 | 0.00 | 0.00 | 80 | 1007.0 |
| 20260831043509 | 63 | 222 | 4.0 | 11.0 | 0.00 | 0.00 | 0.00 | 81 | 1007.0 |
| 20260831043007 | 63 | 212 | 6.0 | 13.0 | 0.00 | 0.00 | 0.00 | 82 | 1007.1 |
| 20260831042509 | 63 | 226 | 4.0 | 13.0 | 0.00 | 0.00 | 0.00 | 83 | 1007.2 |
| 20260831042006 | 63 | 219 | 3.0 | 10.0 | 0.00 | 0.00 | 0.00 | 83 | 1007.2 |
| 20260831041508 | 62 | 220 | 4.0 | 10.0 | 0.00 | 0.00 | 0.00 | 84 | 1007.4 |
| 20260831041007 | 62 | 251 | 4.0 | 9.0 | 0.00 | 0.00 | 0.00 | 84 | 1007.5 |
| 20260831040503 | 62 | 203 | 5.0 | 10.0 | 0.00 | 0.00 | 0.00 | 85 | 1007.4 |
| 20260831040002 | 62 | 250 | 4.0 | 10.0 | 0.00 | 0.00 | 0.00 | 85 | 1007.4 |
| 20260831035503 | 62 | 224 | 3.0 | 9.0 | 0.00 | 0.00 | 0.00 | 86 | 1007.4 |
| 20260831035002 | 62 | 211 | 3.0 | 9.0 | 0.00 | 0.00 | 0.00 | 86 | 1007.4 |
| 20260831034501 | 62 | 211 | 4.0 | 11.0 | 0.00 | 0.00 | 0.00 | 86 | 1007.4 |
| 20260831034101 | 62 | 214 | 5.0 | 10.0 | 0.00 | 0.00 | 0.00 | 86 | 1007.6 |
| 20260831033502 | 62 | 271 | 5.0 | 10.0 | 0.00 | 0.00 | 0.00 | 86 | 1007.6 |
| 20260831033002 | 62 | 227 | 5.0 | 10.0 | 0.00 | 0.00 | 0.00 | 86 | 1007.7 |
| 20260831032600 | 62 | 249 | 3.0 | 10.0 | 0.00 | 0.00 | 0.00 | 86 | 1007.8 |
| 20260831032102 | 62 | 205 | 4.0 | 11.0 | 0.00 | 0.00 | 0.00 | 87 | 1007.8 |
| 20260831031559 | 62 | 235 | 3.0 | 11.0 | 0.00 | 0.00 | 0.00 | 86 | 1007.9 |
| 20260831031058 | 62 | 230 | 4.0 | 9.0 | 0.00 | 0.00 | 0.00 | 86 | 1007.9 |
| 20260831030600 | 62 | 253 | 5.0 | 10.0 | 0.00 | 0.00 | 0.00 | 86 | 1008.0 |
| 20260831025557 | 62 | 203 | 5.0 | 11.0 | 0.00 | 0.00 | 0.00 | 86 | 1007.9 |
| 20260831025056 | 62 | 234 | 4.0 | 10.0 | 0.00 | 0.00 | 0.00 | 86 | 1007.9 |
| 20260831024616 | 62 | 220 | 5.0 | 11.0 | 0.00 | 0.00 | 0.00 | 86 | 1008.0 |
| 20260831024054 | 62 | 213 | 5.0 | 13.0 | 0.00 | 0.00 | 0.00 | 86 | 1008.0 |
| 20260831023554 | 62 | 229 | 5.0 | 13.0 | 0.00 | 0.00 | 0.00 | 86 | 1008.0 |
| 20260831023052 | 62 | 254 | 4.0 | 10.0 | 0.00 | 0.00 | 0.00 | 86 | 1008.1 |
| 20260831022551 | 62 | 203 | 5.0 | 11.0 | 0.00 | 0.00 | 0.00 | 86 | 1008.1 |
| 20260831022051 | 62 | 226 | 4.0 | 11.0 | 0.00 | 0.00 | 0.00 | 86 | 1008.1 |
| 20260831021553 | 62 | 190 | 5.0 | 11.0 | 0.00 | 0.00 | 0.00 | 86 | 1008.2 |
| 20260831021049 | 62 | 251 | 4.0 | 11.0 | 0.00 | 0.00 | 0.00 | 85 | 1008.3 |
| 20260831020551 | 62 | 204 | 4.0 | 10.0 | 0.00 | 0.00 | 0.00 | 85 | 1008.4 |
| 20260831020047 | 62 | 211 | 4.0 | 11.0 | 0.00 | 0.00 | 0.00 | 85 | 1008.4 |
| 20260831015550 | 62 | 257 | 4.0 | 11.0 | 0.00 | 0.00 | 0.00 | 84 | 1008.4 |
| 20260831015046 | 62 | 253 | 4.0 | 11.0 | 0.00 | 0.00 | 0.00 | 84 | 1008.5 |
| 20260831014546 | 63 | 187 | 5.0 | 10.0 | 0.00 | 0.00 | 0.00 | 84 | 1008.5 |
| 20260831014046 | 63 | 257 | 4.0 | 12.0 | 0.00 | 0.00 | 0.00 | 83 | 1008.5 |
| 20260831013546 | 63 | 251 | 4.0 | 12.0 | 0.00 | 0.00 | 0.00 | 83 | 1008.6 |
| 20260831013053 | 63 | 258 | 6.0 | 11.0 | 0.00 | 0.00 | 0.00 | 83 | 1008.6 |
| 20260831012546 | 63 | 237 | 4.0 | 11.0 | 0.00 | 0.00 | 0.00 | 83 | 1008.7 |
| 20260831012044 | 63 | 236 | 4.0 | 14.0 | 0.00 | 0.00 | 0.00 | 83 | 1008.9 |
| 20260831011552 | 63 | 273 | 4.0 | 14.0 | 0.00 | 0.00 | 0.00 | 82 | 1009.0 |
| 20260831011044 | 63 | 237 | 6.0 | 12.0 | 0.00 | 0.00 | 0.00 | 82 | 1009.2 |
| 20260831010543 | 63 | 206 | 6.0 | 12.0 | 0.00 | 0.00 | 0.00 | 82 | 1009.3 |
| 20260831010104 | 63 | 282 | 5.0 | 14.0 | 0.00 | 0.00 | 0.00 | 81 | 1009.3 |
| 20260831005543 | 63 | 207 | 5.0 | 14.0 | 0.00 | 0.00 | 0.00 | 81 | 1009.3 |
| 20260831005043 | 63 | 230 | 4.0 | 10.0 | 0.00 | 0.00 | 0.00 | 80 | 1009.5 |
| 20260831004542 | 63 | 212 | 4.0 | 10.0 | 0.00 | 0.00 | 0.00 | 80 | 1009.5 |
| 20260831004044 | 63 | 250 | 4.0 | 10.0 | 0.00 | 0.00 | 0.00 | 79 | 1009.4 |
| 20260831003542 | 63 | 255 | 4.0 | 10.0 | 0.00 | 0.00 | 0.00 | 79 | 1009.4 |
| 20260831003042 | 63 | 253 | 5.0 | 10.0 | 0.00 | 0.00 | 0.00 | 78 | 1009.5 |
| 20260831002541 | 63 | 226 | 5.0 | 11.0 | 0.00 | 0.00 | 0.00 | 78 | 1009.4 |
| 20260831002042 | 63 | 189 | 5.0 | 11.0 | 0.00 | 0.00 | 0.00 | 77 | 1009.6 |
| 20260831001542 | 63 | 219 | 4.0 | 10.0 | 0.00 | 0.00 | 0.00 | 77 | 1009.7 |
| 20260831001041 | 63 | 219 | 4.0 | 11.0 | 0.00 | 0.00 | 0.00 | 76 | 1009.6 |
| 20260831000541 | 63 | 230 | 3.0 | 11.0 | 0.00 | 0.00 | 0.00 | 76 | 1009.6 |
| 20260831000055 | 63 | 253 | 3.0 | 10.0 | 0.00 | 0.00 | 0.00 | 75 | 1009.6 |
| 20260830235541 | 63 | 226 | 3.0 | 9.0 | 0.00 | 0.00 | 0.00 | 75 | 1009.6 |
| 20260830235042 | 63 | 236 | 3.0 | 10.0 | 0.00 | 0.00 | 0.00 | 75 | 1009.4 |
| 20260830234540 | 63 | 193 | 3.0 | 10.0 | 0.00 | 0.00 | 0.00 | 75 | 1009.5 |
| 20260830234041 | 63 | 212 | 4.0 | 9.0 | 0.00 | 0.00 | 0.00 | 75 | 1009.4 |
| 20260830233541 | 63 | 251 | 4.0 | 9.0 | 0.00 | 0.00 | 0.00 | 75 | 1009.5 |
| 20260830233041 | 63 | 226 | 3.0 | 10.0 | 0.00 | 0.00 | 0.00 | 74 | 1009.5 |
| 20260830232543 | 64 | 261 | 4.0 | 10.0 | 0.00 | 0.00 | 0.00 | 74 | 1009.4 |
| 20260830232043 | 64 | 207 | 4.0 | 9.0 | 0.00 | 0.00 | 0.00 | 74 | 1009.4 |
| 20260830231543 | 64 | 218 | 3.0 | 9.0 | 0.00 | 0.00 | 0.00 | 74 | 1009.4 |
| 20260830231041 | 64 | 238 | 4.0 | 9.0 | 0.00 | 0.00 | 0.00 | 74 | 1009.4 |
| 20260830230539 | 64 | 213 | 3.0 | 11.0 | 0.00 | 0.00 | 0.00 | 74 | 1009.3 |
| 20260830230050 | 64 | 207 | 5.0 | 9.0 | 0.00 | 0.00 | 0.00 | 75 | 1009.4 |
| 20260830225541 | 64 | 245 | 2.0 | 7.0 | 0.00 | 0.00 | 0.00 | 75 | 1009.4 |
| 20260830225040 | 65 | 235 | 3.0 | 8.0 | 0.00 | 0.00 | 0.00 | 74 | 1009.4 |
| 20260830224539 | 65 | 247 | 3.0 | 8.0 | 0.00 | 0.00 | 0.00 | 74 | 1009.3 |
| 20260830224040 | 65 | 216 | 4.0 | 9.0 | 0.00 | 0.00 | 0.00 | 74 | 1009.3 |
| 20260830223544 | 65 | 220 | 4.0 | 9.0 | 0.00 | 0.00 | 0.00 | 74 | 1009.3 |
| 20260830223101 | 65 | 221 | 2.0 | 10.0 | 0.00 | 0.00 | 0.00 | 74 | 1009.3 |
| 20260830222544 | 65 | 232 | 4.0 | 10.0 | 0.00 | 0.00 | 0.00 | 73 | 1009.2 |
| 20260830222040 | 66 | 247 | 4.0 | 11.0 | 0.00 | 0.00 | 0.00 | 73 | 1009.3 |
| 20260830221540 | 66 | 225 | 5.0 | 12.0 | 0.00 | 0.00 | 0.00 | 72 | 1009.3 |
| 20260830221041 | 66 | 226 | 5.0 | 12.0 | 0.00 | 0.00 | 0.00 | 72 | 1009.3 |
| 20260830220539 | 66 | 218 | 4.0 | 16.0 | 0.00 | 0.00 | 0.00 | 71 | 1009.3 |
| 20260830220042 | 67 | 200 | 5.0 | 16.0 | 0.00 | 0.00 | 0.00 | 71 | 1009.2 |
| 20260830215539 | 67 | 211 | 5.0 | 13.0 | 0.00 | 0.00 | 0.00 | 70 | 1009.1 |
| 20260830215040 | 67 | 229 | 5.0 | 12.0 | 0.00 | 0.00 | 0.00 | 70 | 1009.0 |
| 20260830214539 | 67 | 258 | 5.0 | 11.0 | 0.00 | 0.00 | 0.00 | 70 | 1008.9 |
| 20260830214038 | 68 | 254 | 4.0 | 10.0 | 0.00 | 0.00 | 0.00 | 69 | 1009.1 |
| 20260830213538 | 68 | 212 | 5.0 | 10.0 | 0.00 | 0.00 | 0.00 | 69 | 1009.1 |
| 20260830213039 | 68 | 222 | 5.0 | 15.0 | 0.00 | 0.00 | 0.00 | 68 | 1009.3 |
| 20260830212537 | 69 | 249 | 6.0 | 15.0 | 0.00 | 0.00 | 0.00 | 67 | 1009.4 |
| 20260830212038 | 69 | 178 | 6.0 | 14.0 | 0.00 | 0.00 | 0.00 | 66 | 1009.4 |
| 20260830211538 | 69 | 195 | 7.0 | 16.0 | 0.00 | 0.00 | 0.00 | 66 | 1009.5 |
| 20260830211038 | 69 | 222 | 7.0 | 16.0 | 0.00 | 0.00 | 0.00 | 66 | 1009.4 |
| 20260830210538 | 69 | 224 | 6.0 | 16.0 | 0.00 | 0.00 | 0.00 | 66 | 1009.3 |
| 20260830210038 | 69 | 205 | 6.0 | 19.0 | 0.00 | 0.00 | 0.00 | 65 | 1009.3 |
| 20260830205536 | 70 | 222 | 7.0 | 15.0 | 0.00 | 0.00 | 0.00 | 65 | 1009.3 |
| 20260830205036 | 70 | 192 | 4.0 | 13.0 | 0.00 | 0.00 | 0.00 | 65 | 1009.4 |
| 20260830204537 | 70 | 189 | 8.0 | 13.0 | 0.00 | 0.00 | 0.00 | 64 | 1009.3 |
| 20260830204037 | 70 | 193 | 8.0 | 16.0 | 0.00 | 0.00 | 0.00 | 63 | 1009.3 |
| 20260830203537 | 70 | 195 | 8.0 | 16.0 | 0.00 | 0.00 | 0.00 | 63 | 1009.4 |
| 20260830203038 | 71 | 232 | 6.0 | 14.0 | 0.00 | 0.00 | 0.00 | 64 | 1009.4 |
| 20260830202539 | 71 | 247 | 7.0 | 19.0 | 0.00 | 0.00 | 0.00 | 63 | 1009.4 |
| 20260830202036 | 71 | 224 | 6.0 | 19.0 | 0.00 | 0.00 | 0.00 | 62 | 1009.4 |
| 20260830201635 | 71 | 207 | 4.0 | 14.0 | 0.00 | 0.00 | 0.00 | 63 | 1009.4 |
| 20260830201036 | 71 | 195 | 5.0 | 14.0 | 0.00 | 0.00 | 0.00 | 63 | 1009.5 |
| 20260830200535 | 71 | 218 | 6.0 | 14.0 | 0.00 | 0.00 | 0.00 | 63 | 1009.5 |
| 20260830200035 | 71 | 243 | 6.0 | 13.0 | 0.00 | 0.00 | 0.00 | 63 | 1009.5 |
| 20260830195537 | 71 | 158 | 5.0 | 18.0 | 0.00 | 0.00 | 0.00 | 63 | 1009.6 |
| 20260830195036 | 71 | 194 | 8.0 | 18.0 | 0.00 | 0.00 | 0.00 | 63 | 1009.5 |
| 20260830194543 | 71 | 255 | 5.0 | 15.0 | 0.00 | 0.00 | 0.00 | 64 | 1009.6 |
| 20260830194037 | 71 | 259 | 8.0 | 14.0 | 0.00 | 0.00 | 0.00 | 61 | 1009.4 |
| 20260830193534 | 72 | 233 | 8.0 | 14.0 | 0.00 | 0.00 | 0.00 | 60 | 1009.4 |
| 20260830193038 | 72 | 191 | 6.0 | 14.0 | 0.00 | 0.00 | 0.00 | 61 | 1009.5 |
| 20260830192534 | 72 | 210 | 7.0 | 14.0 | 0.00 | 0.00 | 0.00 | 61 | 1009.4 |
| 20260830192038 | 71 | 237 | 5.0 | 14.0 | 0.00 | 0.00 | 0.00 | 61 | 1009.5 |
| 20260830191534 | 71 | 196 | 6.0 | 16.0 | 0.00 | 0.00 | 0.00 | 60 | 1009.7 |
| 20260830191034 | 72 | 232 | 7.0 | 16.0 | 0.00 | 0.00 | 0.00 | 59 | 1009.6 |
| 20260830190535 | 71 | 223 | 6.0 | 14.0 | 0.00 | 0.00 | 0.00 | 58 | 1009.6 |
| 20260830190035 | 71 | 194 | 7.0 | 18.0 | 0.00 | 0.00 | 0.00 | 59 | 1009.7 |
| 20260830185534 | 72 | 238 | 6.0 | 18.0 | 0.00 | 0.00 | 0.00 | 58 | 1009.7 |
| 20260830185032 | 72 | 224 | 5.0 | 19.0 | 0.00 | 0.00 | 0.00 | 59 | 1009.7 |
| 20260830184534 | 72 | 237 | 7.0 | 16.0 | 0.00 | 0.00 | 0.00 | 58 | 1009.6 |
| 20260830184032 | 71 | 272 | 8.0 | 18.0 | 0.00 | 0.00 | 0.00 | 59 | 1009.8 |
| 20260830183532 | 71 | 224 | 7.0 | 18.0 | 0.00 | 0.00 | 0.00 | 59 | 1009.8 |
| 20260830183034 | 72 | 193 | 7.0 | 15.0 | 0.00 | 0.00 | 0.00 | 58 | 1009.7 |
| 20260830182533 | 72 | 281 | 6.0 | 18.0 | 0.00 | 0.00 | 0.00 | 58 | 1009.8 |
| 20260830182033 | 72 | 261 | 7.0 | 18.0 | 0.00 | 0.00 | 0.00 | 58 | 1009.8 |
| 20260830181533 | 72 | 234 | 7.0 | 19.0 | 0.00 | 0.00 | 0.00 | 56 | 1009.9 |
| 20260830181035 | 72 | 199 | 7.0 | 19.0 | 0.00 | 0.00 | 0.00 | 58 | 1009.9 |
| 20260830180531 | 73 | 313 | 5.0 | 13.0 | 0.00 | 0.00 | 0.00 | 60 | 1009.9 |
| 20260830180032 | 72 | 277 | 6.0 | 14.0 | 0.00 | 0.00 | 0.00 | 59 | 1009.9 |
| 20260830175531 | 72 | 241 | 7.0 | 18.0 | 0.00 | 0.00 | 0.00 | 60 | 1010.1 |
| 20260830175032 | 72 | 232 | 10.0 | 18.0 | 0.00 | 0.00 | 0.00 | 59 | 1010.0 |
| 20260830174537 | 72 | 239 | 9.0 | 18.0 | 0.00 | 0.00 | 0.00 | 58 | 1010.0 |
| 20260830174030 | 72 | 202 | 6.0 | 21.0 | 0.00 | 0.00 | 0.00 | 59 | 1010.1 |
| 20260830173530 | 72 | 240 | 6.0 | 21.0 | 0.00 | 0.00 | 0.00 | 59 | 1010.1 |
| 20260830173032 | 72 | 201 | 10.0 | 22.0 | 0.00 | 0.00 | 0.00 | 58 | 1010.2 |
| 20260830172530 | 72 | 270 | 7.0 | 22.0 | 0.00 | 0.00 | 0.00 | 59 | 1010.3 |
| 20260830172030 | 72 | 256 | 9.0 | 23.0 | 0.00 | 0.00 | 0.00 | 59 | 1010.4 |
| 20260830171534 | 72 | 270 | 10.0 | 23.0 | 0.00 | 0.00 | 0.00 | 58 | 1010.5 |
| 20260830171033 | 72 | 266 | 7.0 | 19.0 | 0.00 | 0.00 | 0.00 | 59 | 1010.5 |
| 20260830170529 | 72 | 196 | 8.0 | 19.0 | 0.00 | 0.00 | 0.00 | 58 | 1010.4 |
| 20260830170028 | 72 | 228 | 7.0 | 19.0 | 0.00 | 0.00 | 0.00 | 59 | 1010.3 |
| 20260830165627 | 72 | 252 | 10.0 | 20.0 | 0.00 | 0.00 | 0.00 | 59 | 1010.2 |
| 20260830165031 | 72 | 232 | 9.0 | 20.0 | 0.00 | 0.00 | 0.00 | 59 | 1010.3 |
| 20260830164527 | 72 | 210 | 7.0 | 15.0 | 0.00 | 0.00 | 0.00 | 58 | 1010.3 |
| 20260830164028 | 71 | 235 | 6.0 | 12.0 | 0.00 | 0.00 | 0.00 | 59 | 1010.6 |
| 20260830163530 | 71 | 218 | 6.0 | 14.0 | 0.00 | 0.00 | 0.00 | 58 | 1010.5 |
| 20260830163030 | 71 | 265 | 6.0 | 14.0 | 0.00 | 0.00 | 0.00 | 59 | 1010.6 |
| 20260830162530 | 71 | 227 | 6.0 | 16.0 | 0.00 | 0.00 | 0.00 | 59 | 1010.7 |
| 20260830162031 | 70 | 204 | 7.0 | 16.0 | 0.00 | 0.00 | 0.00 | 59 | 1010.6 |
| 20260830161535 | 70 | 197 | 7.0 | 20.0 | 0.00 | 0.00 | 0.00 | 59 | 1010.5 |
| 20260830161026 | 70 | 222 | 8.0 | 20.0 | 0.00 | 0.00 | 0.00 | 58 | 1010.6 |
| 20260830160526 | 71 | 219 | 5.0 | 18.0 | 0.00 | 0.00 | 0.00 | 60 | 1010.5 |
| 20260830160026 | 71 | 251 | 8.0 | 18.0 | 0.00 | 0.00 | 0.00 | 58 | 1010.6 |
| 20260830155525 | 71 | 237 | 6.0 | 18.0 | 0.00 | 0.00 | 0.00 | 60 | 1010.6 |
| 20260830155025 | 71 | 275 | 9.0 | 18.0 | 0.00 | 0.00 | 0.00 | 59 | 1010.7 |
| 20260830154525 | 71 | 280 | 5.0 | 13.0 | 0.00 | 0.00 | 0.00 | 61 | 1010.8 |
| 20260830154025 | 71 | 247 | 4.0 | 16.0 | 0.00 | 0.00 | 0.00 | 60 | 1010.7 |
| 20260830153523 | 71 | 295 | 6.0 | 16.0 | 0.00 | 0.00 | 0.00 | 60 | 1010.8 |
| 20260830153023 | 71 | 275 | 9.0 | 16.0 | 0.00 | 0.00 | 0.00 | 59 | 1010.8 |
| 20260830152525 | 71 | 240 | 8.0 | 16.0 | 0.00 | 0.00 | 0.00 | 59 | 1010.9 |
| 20260830152022 | 70 | 225 | 6.0 | 20.0 | 0.00 | 0.00 | 0.00 | 58 | 1010.8 |
| 20260830151522 | 70 | 266 | 7.0 | 20.0 | 0.00 | 0.00 | 0.00 | 59 | 1010.8 |
| 20260830151022 | 70 | 236 | 9.0 | 16.0 | 0.00 | 0.00 | 0.00 | 59 | 1010.8 |
| 20260830150522 | 71 | 283 | 6.0 | 18.0 | 0.00 | 0.00 | 0.00 | 59 | 1010.9 |
| 20260830150021 | 70 | 226 | 7.0 | 18.0 | 0.00 | 0.00 | 0.00 | 62 | 1010.9 |
| 20260830145519 | 70 | 233 | 5.0 | 16.0 | 0.00 | 0.00 | 0.00 | 62 | 1010.9 |
| 20260830145020 | 70 | 218 | 9.0 | 16.0 | 0.00 | 0.00 | 0.00 | 62 | 1010.9 |
| 20260830144522 | 70 | 284 | 5.0 | 16.0 | 0.00 | 0.00 | 0.00 | 64 | 1010.9 |
| 20260830144017 | 69 | 251 | 7.0 | 16.0 | 0.00 | 0.00 | 0.00 | 66 | 1011.0 |
| 20260830143517 | 69 | 272 | 6.0 | 16.0 | 0.00 | 0.00 | 0.00 | 66 | 1011.0 |
| 20260830143018 | 69 | 216 | 8.0 | 16.0 | 0.00 | 0.00 | 0.00 | 64 | 1011.0 |
| 20260830142516 | 69 | 226 | 7.0 | 16.0 | 0.00 | 0.00 | 0.00 | 69 | 1011.1 |
| 20260830142014 | 69 | 247 | 5.0 | 14.0 | 0.00 | 0.00 | 0.00 | 69 | 1011.1 |
| 20260830141514 | 69 | 278 | 5.0 | 14.0 | 0.00 | 0.00 | 0.00 | 71 | 1011.2 |
| 20260830141013 | 69 | 183 | 5.0 | 12.0 | 0.00 | 0.00 | 0.00 | 70 | 1011.3 |
| 20260830140513 | 68 | 254 | 6.0 | 16.0 | 0.00 | 0.00 | 0.00 | 71 | 1011.3 |
| 20260830140012 | 68 | 184 | 3.0 | 16.0 | 0.00 | 0.00 | 0.00 | 72 | 1011.3 |
| 20260830135512 | 68 | 230 | 7.0 | 14.0 | 0.00 | 0.00 | 0.00 | 72 | 1011.4 |
| 20260830135016 | 67 | 195 | 4.0 | 15.0 | 0.00 | 0.00 | 0.00 | 73 | 1011.4 |
| 20260830134525 | 67 | 275 | 6.0 | 12.0 | 0.00 | 0.00 | 0.00 | 72 | 1011.5 |
| 20260830134011 | 67 | 240 | 8.0 | 16.0 | 0.00 | 0.00 | 0.00 | 70 | 1011.5 |
| 20260830133511 | 67 | 231 | 7.0 | 16.0 | 0.00 | 0.00 | 0.00 | 70 | 1011.5 |
| 20260830133011 | 68 | 271 | 6.0 | 13.0 | 0.00 | 0.00 | 0.00 | 70 | 1011.4 |
| 20260830132511 | 68 | 193 | 6.0 | 14.0 | 0.00 | 0.00 | 0.00 | 70 | 1011.4 |
| 20260830132010 | 68 | 220 | 6.0 | 14.0 | 0.00 | 0.00 | 0.00 | 70 | 1011.3 |
| 20260830131509 | 68 | 253 | 6.0 | 13.0 | 0.00 | 0.00 | 0.00 | 73 | 1011.4 |
| 20260830131009 | 67 | 295 | 6.0 | 13.0 | 0.00 | 0.00 | 0.00 | 72 | 1011.4 |
| 20260830130509 | 67 | 300 | 6.0 | 12.0 | 0.00 | 0.00 | 0.00 | 73 | 1011.5 |
| 20260830130012 | 67 | 241 | 7.0 | 12.0 | 0.00 | 0.00 | 0.00 | 73 | 1011.5 |
| 20260830125506 | 67 | 300 | 5.0 | 14.0 | 0.00 | 0.00 | 0.00 | 75 | 1011.5 |
| 20260830125005 | 66 | 258 | 6.0 | 15.0 | 0.00 | 0.00 | 0.00 | 76 | 1011.5 |
| 20260830124505 | 66 | 261 | 7.0 | 16.0 | 0.00 | 0.00 | 0.00 | 75 | 1011.5 |
| 20260830124003 | 66 | 230 | 8.0 | 14.0 | 0.00 | 0.00 | 0.00 | 76 | 1011.5 |
| 20260830123503 | 66 | 278 | 7.0 | 14.0 | 0.00 | 0.00 | 0.00 | 77 | 1011.5 |
| 20260830123005 | 66 | 237 | 8.0 | 13.0 | 0.00 | 0.00 | 0.00 | 76 | 1011.4 |
| 20260830122503 | 66 | 262 | 6.0 | 19.0 | 0.00 | 0.00 | 0.00 | 76 | 1011.3 |
| 20260830122003 | 65 | 275 | 8.0 | 19.0 | 0.00 | 0.00 | 0.00 | 77 | 1011.3 |
| 20260830121501 | 65 | 217 | 5.0 | 13.0 | 0.00 | 0.00 | 0.00 | 77 | 1011.4 |
| 20260830121001 | 65 | 276 | 6.0 | 13.0 | 0.00 | 0.00 | 0.00 | 77 | 1011.4 |
| 20260830120501 | 65 | 259 | 6.0 | 13.0 | 0.00 | 0.00 | 0.00 | 77 | 1011.4 |
| 20260830120002 | 65 | 195 | 6.0 | 15.0 | 0.00 | 0.00 | 0.00 | 78 | 1011.4 |
| 20260830115601 | 65 | 243 | 6.0 | 15.0 | 0.00 | 0.00 | 0.00 | 79 | 1011.4 |
| 20260830115100 | 65 | 274 | 4.0 | 14.0 | 0.00 | 0.00 | 0.00 | 80 | 1011.4 |
| 20260830114602 | 65 | 242 | 6.0 | 14.0 | 0.00 | 0.00 | 0.00 | 80 | 1011.4 |
| 20260830114058 | 64 | 197 | 6.0 | 12.0 | 0.00 | 0.00 | 0.00 | 81 | 1011.3 |
| 20260830113059 | 64 | 231 | 5.0 | 12.0 | 0.00 | 0.00 | 0.00 | 81 | 1011.3 |
| 20260830112557 | 64 | 286 | 7.0 | 12.0 | 0.00 | 0.00 | 0.00 | 81 | 1011.3 |
| 20260830112057 | 64 | 225 | 4.0 | 10.0 | 0.00 | 0.00 | 0.00 | 82 | 1011.2 |
| 20260830111555 | 64 | 232 | 4.0 | 10.0 | 0.00 | 0.00 | 0.00 | 82 | 1011.2 |
| 20260830111054 | 64 | 259 | 4.0 | 9.0 | 0.00 | 0.00 | 0.00 | 83 | 1011.2 |
| 20260830110555 | 64 | 258 | 3.0 | 9.0 | 0.00 | 0.00 | 0.00 | 83 | 1011.2 |
| 20260830110100 | 64 | 253 | 4.0 | 12.0 | 0.00 | 0.00 | 0.00 | 83 | 1011.2 |
| 20260830105553 | 64 | 234 | 5.0 | 12.0 | 0.00 | 0.00 | 0.00 | 83 | 1011.2 |
| 20260830105052 | 63 | 253 | 5.0 | 11.0 | 0.00 | 0.00 | 0.00 | 85 | 1011.2 |
| 20260830104552 | 63 | 249 | 3.0 | 9.0 | 0.00 | 0.00 | 0.00 | 86 | 1011.1 |
| 20260830104052 | 63 | 260 | 4.0 | 9.0 | 0.00 | 0.00 | 0.00 | 86 | 1011.1 |
| 20260830103051 | 63 | 261 | 2.0 | 9.0 | 0.00 | 0.00 | 0.00 | 88 | 1011.0 |
| 20260830102551 | 63 | 245 | 4.0 | 9.0 | 0.00 | 0.00 | 0.00 | 88 | 1011.0 |
| 20260830102050 | 62 | 232 | 2.0 | 8.0 | 0.00 | 0.00 | 0.00 | 89 | 1011.0 |